Schenectady, NY

7:56 AM EDT on July 24, 2016 (GMT -0400)
GE Volunteers | | Change Station

Elev 350 ft 42.83 °N, 73.88 °W | Updated 20 seconds ago

Scattered Clouds
Scattered Clouds
64.6 °F
Feels Like 64.6 °F
N
0.0
Wind Variable Wind from SW
Gusts 1.0 mph

Today
High -- | Low -- °F
--% Chance of Precip.
Yesterday
High -- | Low -- °F
Precip. -- in
Pressure 30.01 in
Visibility 10.0 miles
Clouds Few 300 ft
Few 26000 ft
Scattered Clouds 30000 ft
Dew Point 64 °F
Humidity 96%
Rainfall 0.00 in
Snow Depth Not available.
5:39 AM 8:24 PM
Waning Gibbous, 77% visible
METAR KALB 241151Z 34003KT 10SM FEW003 FEW260 SCT300 20/17 A3001 RMK AO2 SLP162 70003 T02000167 10206 20150 53016
Pressure 30.01 in
Visibility 10.0 miles
Clouds Few 300 ft
Few 26000 ft
Scattered Clouds 30000 ft
Dew Point 64 °F
Humidity 96%
Rainfall 0.00 in
Snow Depth Not available.
5:39 AM 8:24 PM
Waning Gibbous, 77% visible
METAR KALB 241151Z 34003KT 10SM FEW003 FEW260 SCT300 20/17 A3001 RMK AO2 SLP162 70003 T02000167 10206 20150 53016

10-Day Weather Forecast

Almanac

Astronomy

Jul. 24, 2016 Rise Set
Actual Time
Civil Twilight
Nautical Twilight
Astronomical Twilight
Moon
Length of Visible Light
Length of Day
Tomorrow will be .
, % of the Moon is Illuminated

Today's Extremes

State Highs State Lows

Community

WunderPhotos

Upload Photos

1,927,049 photos uploaded!

WunderBlog® & News

Nearby

Air Quality

  Air Quality AQ Index Pollutant
Not available.

Snow Depth

Station Depth Elevation

Earthquake Activity

City Distance Mag. Time & Date
Minimum magnitude displayed is 2.5.

Coastal Water Temperatures

Place Temperature

Stations

Nearby Weather Stations

Station Location Temp. Windchill Dew Point Humidity Wind Precip. Elev Updated Type
                   

Watches & Warnings

There are currently no watches in effect.